Preview of NWS' New Version of Forecast
This preview is not operational and should not be used for support decisions.

Regional Weather Roundup (RWR)

Issued by National Weather Service (NWS)

                            
000
ASUS43 KMKX 222300
RWRWI 

WISCONSIN REGIONAL WEATHER ROUNDUP
NATIONAL WEATHER SERVICE MILWAUKEE/SULLIVAN WI
600 PM CDT MON JUL 22 2019

NOTE: "FAIR" INDICATES FEW OR NO CLOUDS BELOW 12,000 FEET WITH NO
SIGNIFICANT WEATHER AND/OR OBSTRUCTIONS TO VISIBILITY.

WIZ001-002-006>008-014>016-023>028-230000-
NORTHWEST WISCONSIN
  
CITY           SKY/WX    TMP DP  RH WIND       PRES   REMARKS
SUPERIOR ARPT  FAIR      78  55  44 NW14G20   30.12F                  
ASHLAND        FAIR      77  54  44 NW8       30.11F                  
HAYWARD        FAIR      76  54  46 NW5       30.14F                  
SIREN          FAIR      77  52  41 NW12      30.17S                  
CUMBERLAND     NOT AVBL                                               
RICE LAKE      FAIR      75  53  46 NW6       30.17F                  
CHETEK         FAIR      76  55  47 NW6       30.16S                  
LADYSMITH      FAIR      76  53  44 NW10      30.16F                  
EAU CLAIRE     NOT AVBL                                               
MENOMONIE      FAIR      73  48  41 NW12      30.16F                  
NEW RICHMOND   FAIR      76  49  39 NW9       30.19S                  
OSCEOLA        FAIR      77  54  45 NW9       30.21S                  
$$
 
WIZ003>005-009-010-017-018-230000-
NORTH CENTRAL WISCONSIN
  
CITY           SKY/WX    TMP DP  RH WIND       PRES   REMARKS
MANITOWISH WTR FAIR      73  52  47 NW13      30.13F                  
ARBOR VITAE    FAIR      77  55  45 NW13G24   30.13F                  
WOODRUFF       FAIR      77  55  45 NW13G24   30.13F                  
RHINELANDER    FAIR      73  49  42 N9G17     30.13S                  
EAGLE RIVER    FAIR      73  45  36 N13G21    30.12S                  
LAND O LAKES   FAIR      73  47  38 N10G21    30.14S                  
PHILLIPS       FAIR      74  52  47 N8        30.13F                  
TOMAHAWK       FAIR      73  49  41 NW8G17    30.14S                  
MEDFORD        PTSUNNY   73  52  47 NW12      30.13F                  
MERRILL        FAIR      74  54  48 N9        30.12S                  
$$
 
WIZ029-030-035-036-043>047-230000-
CENTRAL WISCONSIN
  
CITY           SKY/WX    TMP DP  RH WIND       PRES   REMARKS
WAUSAU         FAIR      76  49  38 N12       30.09F                  
MOSINEE        MOSUNNY   73  50  43 NW12      30.12F                  
MARSHFIELD     FAIR      75  53  46 NW10      30.12F                  
STEVENS POINT  PTSUNNY   75  50  41 NW8G16    30.11F                  
WAUPACA        NOT AVBL                                               
WAUTOMA        FAIR      77  52  41 NW9       30.10F                  
WISC RAPIDS    PTSUNNY   76  52  43 N6        30.12F                  
CAMP DOUGLAS   NOT AVBL                                               
$$
 
WIZ011>013-019>022-031-037>040-048>050-230000-
NORTHEAST WISCONSIN
  
CITY           SKY/WX    TMP DP  RH WIND       PRES   REMARKS
ANTIGO         FAIR      73  51  47 NW14G21   30.11F                  
SHAWANO        FAIR      79  49  34 NW12      30.06F                  
OCONTO         FAIR      78  52  39 NW7       30.04S                  
STURGEON BAY   FAIR      76  55  48 W8        30.04F                  
GREEN BAY      FAIR      79  53  40 NW5       30.05F                  
MANITOWOC      FAIR      76  50  40 NW6       30.06F                  
APPLETON       MOSUNNY   75  41  29 NW7       30.07F                  
CLINTONVILLE   FAIR      78  46  32 NW13      30.07F                  
OSHKOSH        FAIR      76  49  38 NW6       30.08F                  
$$
 
WIZ032>034-041-042-053>061-230000-
SOUTHWEST WISCONSIN
  
CITY           SKY/WX    TMP DP  RH WIND       PRES   REMARKS
LA CROSSE      FAIR      80  50  34 N13       30.14S HX  80           
SPARTA         FAIR      76  50  40 NW8       30.14F                  
VIROQUA        FAIR      74  54  49 N10       30.16S                  
BOSCOBEL       FAIR      77  52  41 N8        30.14S                  
PRAIRIE DU CHI FAIR      77  47  34 N9        30.14S                  
PLATTEVILLE    FAIR      74  54  49 N10       30.14S                  
$$

WIZ056-057-062-063-064-067-068-230000-
SOUTH CENTRAL WISCONSIN
  
CITY           SKY/WX    TMP DP  RH WIND       PRES   REMARKS
REEDSBURG      FAIR      75  52  44 N8        30.12S                  
BARABOO/DELLS  FAIR      76  48  36 N8        30.12S                  
LONE ROCK      NOT AVBL                                               
MINERAL POINT  FAIR      75  52  43 N9        30.14S                  
MADISON        FAIR      75  50  41 N8G21     30.10F                  
MIDDLETON      FAIR      76  49  38 N12       30.12S                  
WATERTOWN      NOT AVBL                                               
MONROE         FAIR      74  47  38 N9G17     30.12S                  
JANESVILLE     MOSUNNY   75  52  43 N9        30.10S                  
$$
 
WIZ051-052-058>065-066-070>072-230000-
SOUTHEAST WISCONSIN
  
CITY           SKY/WX    TMP DP  RH WIND       PRES   REMARKS
MILWAUKEE      FAIR      72  49  44 NE7       30.08F                  
WAUKESHA       MOSUNNY   72  46  40 N12       30.10S                  
MILWAUKEE/TIMM SUNNY     73  45  35 NE6       30.09F                  
RACINE         FAIR      71  50  47 N10       30.10F                  
KENOSHA        FAIR      73  52  47 NE8       30.09S                  
FOND DU LAC    FAIR      78  49  35 N6        30.09F                  
SHEBOYGAN      FAIR      77  52  41 VRB3      30.07F                  
WEST BEND      FAIR      73  46  38 N9        30.09S                  
JUNEAU         FAIR      73  49  41 N6        30.11S                  
$$

LSZ147-162-230000-
LAKE SUPERIOR
  
STATION/POSITION TIME  TEMP    WIND        PRES    WAVE
                       AIR SEA DIR/SP/G            HT/PER
                 (UTC) (F)     (DEG/KT/KT) (MB)    (FT/S)
W MID LAKE BUOY  2150   58 50  240/  8/  8 1018.6F   1/ 3
$$
 
LMZ867-665-643>646-230000-
LAKE MICHIGAN
  
STATION/POSITION TIME  TEMP    WIND        PRES    WAVE
                       AIR SEA DIR/SP/G            HT/PER
                 (UTC) (F)     (DEG/KT/KT) (MB)    (FT/S)
CHAMBERS ISLAND  2240   78     300/ 11/ 16 1016.3S
S GREEN BAY BUOY 2230   80 74  310/ 10/ 12 1017.4F
N MID LAKE BUOY  2240   68 66  230/  6/  6 1017.2R
NORTHPORT PIER   2240   76     310/  3/  4 1016.3F
KEWAUNEE LAKESHO 2224   75     160/  4/  7 1017.1
SHEBOYGAN LAKESH 2200   66      40/  2/  2 1018.4F
ATWATER BUOY     2230   67 67  310/  4/  6 1019.1F   3/ 5
MILWAUKEE LAKESH 2230   67      30/  3/  4   N/A
S MID LAKE BUOY  2240   67 68  360/ 16/ 19 1018.1F
KENOSHA   LAKESH 2200   67      10/ 11/ 12 1018.6
$$

TC  - TEMPERATURE IN CELSIUS
VSB - VISIBILITY IN STATUTE MILES
WCI - WIND CHILL INDEX
HX  - HEAT INDEX